コホウテク彗星

75D/Kohoutek (2001)

English version
Home page
Total 6,336 html files since Dec. 4, 1995
Updated on August 10, 2008

---------------------------------------------------------------------

・ プロフィール

・ 軌道要素

Epoch 2001 Feb. 20.0 TT = JDT 2451960.5  
T 2001 Feb. 26.17749 TT                                 Muraoka 
q   1.7872908            (2000.0)            P               Q
n   0.14756937     Peri.  175.73235     +0.07954544     -0.99150019
a   3.5465430      Node   269.68248     +0.91150014     +0.11415795
e   0.4960471      Incl.    5.90950     +0.40353441     -0.06241270
P   6.68
From 56 observations 1986 July 30-1988 May 19, mean residual 1".26.

・ 星図

・ 光度変化

        m1 = 18.0 + 5 logΔ + 5.0 log r

---------------------------------------------------------------------

軌道要素は村岡健治氏の計算によるものです。
星図は StellaNavigator Ver.2.0 for Windows (アストロアーツ 編著 / アスキー出版局刊) で作成したものです。
光度グラフはComet for Windowsで作成したものです。

---------------------------------------------------------------------

Copyright(C) 1995-2008 Seiichi Yoshida (comet@aerith.net). All rights reserved.